Regional Weather Roundup
Issued by NWS

Home | Current Version | Previous Version | Text Only | Print | Product List | Glossary On
Versions: 1 2 3 4 5 6 7 8 9 10 11 12 13 14 15 16 17 18 19 20 21 22 23 24 25 26 27 28 29 30 31 32 33 34 35 36 37 38 39 40 41 42 43 44 45 46 47 48 49 50
000
ASUS44 KBMX 121010
RWRAL

ALABAMA REGIONAL WEATHER ROUNDUP
NATIONAL WEATHER SERVICE BIRMINGHAM AL
400 AM CST FRI FEB 12 2016

NOTE: "FAIR" INDICATES FEW OR NO CLOUDS BELOW 12,000 FEET
WITH NO SIGNIFICANT WEATHER AND/OR OBSTRUCTIONS TO VISIBILITY.

THE REMARK "TC" DENOTES TEMPERATURE IN DEGREES CELSIUS.

ALZ001>011-014-016>018-020-121100-
NORTH ALABAMA

CITY           SKY/WX    TMP DP  RH WIND       PRES   REMARKS
MUSCLE SHOALS  MOCLDY    36  26  67 CALM      30.17R
HUNTSVILLE     PTCLDY    37  26  64 N3        30.15R
DECATUR        CLOUDY    34  28  79 N5        30.17R WCI  30
HALEYVILLE     FAIR      32  25  75 N3        30.16R
GADSDEN        MOCLDY    31  28  89 CALM      30.14F
$$

ALZ012-013-022-023-030>036-040>044-121100-
WEST CENTRAL ALABAMA

CITY           SKY/WX    TMP DP  RH WIND       PRES   REMARKS
TUSCALOOSA     CLOUDY    41  32  70 CALM      30.13F
$$

ALZ015-024>027-033>036-040>044-121100-
CENTRAL ALABAMA

CITY           SKY/WX    TMP DP  RH WIND       PRES   REMARKS
BIRMINGHAM     CLOUDY    41  25  53 NE7       30.13F
MONTGOMERY     PTCLDY    43  36  76 NE3       30.13S
SHELBY CO ARPT MOCLDY    41  27  57 CALM      30.12F
MAXWELL AFB    MOCLDY    45  35  67 NE1       30.11S
GREENVILLE     FAIR      51  49  92 SW6       30.11S FOG
$$

ALZ019-021-028-029-037-038-045>048-121100-
EAST CENTRAL ALABAMA

CITY           SKY/WX    TMP DP  RH WIND       PRES   REMARKS
ANNISTON       CLOUDY    39  24  55 E5        30.14F
ALEXANDER CITY CLOUDY    38  31  78 CALM      30.13S
AUBURN         PTCLDY    42  29  59 NE5       30.12F
$$

ALZ051>064-121100-
SOUTHWEST ALABAMA

CITY           SKY/WX    TMP DP  RH WIND       PRES   REMARKS
MOBILE         CLOUDY    57  57 100 W9G22     30.18R
BROOKLEY FIELD PTCLDY    59  57  93 W8G20     30.17S
EVERGREEN      CLEAR     52  51  97 SW7       30.15R
$$

ALZ049-050-065>069-121100-
SOUTHEAST ALABAMA

CITY           SKY/WX    TMP DP  RH WIND       PRES   REMARKS
DOTHAN         CLOUDY    56  55  97 SW10      30.16F
OZARK          FOG       52  52 100 SW5       30.14S VSB<1/4
TROY           FOG       51  50  96 SW5       30.12S VSB 1/4
EUFAULA        FAIR      48  46  93 CALM      30.11S
$$



USA.gov is the U.S. government's official web portal to all federal, state and local government web resources and services.